Regional Weather Roundup
Issued by NWS Grand Forks, ND

Home | Current Version | Previous Version | Text Only | Print | Product List | Glossary Off
Versions: 1 2 3 4 5 6 7 8 9 10 11 12 13 14 15 16 17 18 19 20 21 22 23 24 25 26 27 28 29 30 31 32 33 34 35 36 37 38 39 40 41 42 43 44 45 46 47 48 49 50

000
ASUS43 KFGF 010410
RWRFGF
PRAIRIE TO PINES  WEATHER ROUNDUP
NATIONAL WEATHER SERVICE EASTERN NORTH DAKOTA/GRAND FORKS ND
1100 PM CDT SUN AUG 31 2014

 **SATELLITE DATA USED TO AUGMENT SKY COVER AT AUTOMATED STATIONS**
 *****  WEATHER ACROSS EASTERN NORTH DAKOTA  *****

CITY           SKY/WX    TMP DP  RH WIND       PRES   REMARKS
GRAND FORKS    PTCLDY    60  56  86 NW7       29.62R
GRAND FRKS AFB PTCLDY    58  58  99 NW6       29.64R
GRAND FRKS NWS   N/A     57 N/A N/A N2          N/A
DEVILS LAKE    CLEAR     59  52  77 W7        29.66R
FARGO          MOCLDY    60  58  92 S3        29.64R
WAHPETON ARPT  CLOUDY    63  59  88 CALM      29.67R
$$

 ***** WEATHER ACROSS CENTRAL AND WESTERN NORTH DAKOTA  *****

CITY           SKY/WX    TMP DP  RH WIND       PRES   REMARKS
BISMARCK       RAIN      61  56  83 W18G29    29.75R
MINOT          CLOUDY    57  53  86 NW8       29.70S
JAMESTOWN      CLEAR     59  55  87 NW6       29.69R
MINOT AFB      CLOUDY    56  56  99 W6        29.70S
GARRISON         N/A     57  55  93 W6        29.73S
WILLISTON      CLEAR     56  52  86 CALM      29.76R
DICKINSON      PTCLDY    55  49  80 W5        29.78S
HETTINGER      CLOUDY    53  49  86 NW5       29.81R
$$

 *****  OTHER AIRPORT OBSERVATIONS IN OUR AREA  *****

CITY           SKY/WX    TMP DP  RH WIND       PRES   REMARKS
WALHALLA       FAIR      57  57 100 CALM      29.65R
GRAFTON AIRPOR FAIR      61  59  94 NW6       29.64R
VALLEY CITY AR FAIR      59  59 100 NW6       29.69R
CANDO          FAIR      54  52  94 NW7       29.67S
CAVALIER APRT  FAIR      59  57  94 NW9       29.64R
GWINNER        CLEAR     63  61  94 NW5       29.69R
SHEYENNE NWR     N/A     62  60  92 NW2       29.95
ROLLA          FAIR      55  55 100 W8        29.69R
 ***** THE ABOVE OBSERVATIONS ARE NON NWS ARE NOT QUALITY
       CONTROLLED AND MAY MIS-REPORT RAIN FOR SNOW...
$$

  *****  WEATHER ACROSS NORTHERN MINNESOTA  *****

CITY           SKY/WX    TMP DP  RH WIND       PRES   REMARKS
FLAG ISLAND    CLOUDY    61  57  88 W15       29.56R
WARROAD        MOCLDY    59  55  88 W3        29.61R
ROSEAU         MOCLDY    61  55  82 W5        29.61R
HALLOCK        CLOUDY    61  59  94 NW6       29.62R
THF RVR FALLS  MOCLDY    59  57  94 CALM      29.64R
BAUDETTE       CLOUDY    62  59  90 W5        29.60R
WASKISH        PTCLDY    64  59  82 W13G21    29.63R
CROOKSTON      PTCLDY    61  59  94 N6        29.64R
$$
  *****  WEATHER ACROSS CENTRAL AND WEST MINNESOTA  *****

CITY           SKY/WX    TMP DP  RH WIND       PRES   REMARKS
FOSSTON        MOCLDY    57  55  94 CALM      29.65F
BEMIDJI        CLOUDY    62  60  94 W5        29.64S
PARK RAPIDS    CLOUDY    63  62  97 CALM      29.63F
ELBOW LAKE     MOCLDY    64  63  97 CALM      29.67R
WADENA         CLOUDY    63  63 100 CALM      29.65S
DETROIT LAKES  CLOUDY    64  61  88 NW5       29.67R
MOORHEAD       CLOUDY    64  64 100 CALM      29.66R
FERGUS FALLS   CLOUDY    64  63  94 SW3       29.67R
MORRIS MN      CLOUDY    64  64 100 CALM      29.67R
STAPLES        CLOUDY    64  63  94 CALM      29.65S
$$
  *****  WEATHER ELSEWHERE ACROSS MINNESOTA  *****

CITY           SKY/WX    TMP DP  RH WIND       PRES   REMARKS
DULUTH         LGT RAIN  64  60  87 N3        29.64R
INTRNTL FALLS  CLOUDY    64  62  93 SW7       29.58S
ELY            CLOUDY    63  59  88 S5        29.61S
CLOQUET        CLOUDY    63  61  94 CALM      29.64R FOG
WHEATON        CLOUDY    61  59  94 W3        29.69R
BRAINERD       CLOUDY    66  64  93 W5        29.65R
HIBBING        CLOUDY    64  62  93 S3        29.64R
ALEXANDRIA     CLOUDY    66  63  90 W6        29.68R
SAINT CLOUD    LGT RAIN  67  64  90 SE7       29.66R
MINNEAPOLIS    RAIN      66  65  96 N6        29.65F FOG
$$

  *****  WEATHER ACROSS SOUTH DAKOTA  *****

CITY           SKY/WX    TMP DP  RH WIND       PRES   REMARKS
SIOUX FALLS    MOCLDY    62  59  90 W3        29.69S
BROOKINGS      NOT AVBL
WATERTOWN      CLOUDY    62  60  93 W6        29.71R
HURON          PTCLDY    60  58  92 W5        29.69S
SISSETON         N/A     60  60 100 NW3       29.67R
ABERDEEN       PTCLDY    59  59 100 CALM      29.69R
MITCHELL       MOCLDY    64  61  90 W8        29.70F
PIERRE         CLOUDY    65  60  84 NW10      29.74R
MOBRIDGE       CLOUDY    63  60  90 NW5       29.72R
RAPID CITY     PTCLDY    54  51  90 N13       29.89R
$$

  *****  SOME WEATHER IN NEARBY STATES *****

CITY           SKY/WX    TMP DP  RH WIND       PRES   REMARKS
GLASGOW MT     CLEAR     57  49  74 NE10      29.77R
GREAT FALLS MT CLOUDY    56  39  53 W9        29.92R
CHEYENNE WY    PTCLDY    52  42  69 N6        30.05R
SCOTTSBLUFF NE CLEAR     56  49  77 W8        29.94R
OMAHA NE       CLOUDY    69  67  93 SE5       29.65F
DES MOINES IA  TSTM      68  65  90 SE15      29.76F FOG
DAVENPORT IA   CLOUDY    77  67  71 S14       29.82R
CHICAGO IL     CLEAR     75  67  76 S8        29.88R
EAU CLAIRE WI  CLOUDY    72  66  81 E3        29.67F
LA CROSSE WI   CLOUDY    70  67  90 SE5       29.69F
$$

  *****  SOME NATIONAL WEATHER *****

CITY           SKY/WX    TMP DP  RH WIND       PRES   REMARKS
LA GUARDIA NY  CLOUDY    78  71  79 SW8       29.99F
RALEIGH NC     MOCLDY    80  71  74 S7        30.10S
ATLANTA GA     MOCLDY    79  70  74 CALM      30.13S
NEW ORLEANS LA MOCLDY    82  75  79 SE8       30.05S
OKLAHOMA CITY  CLEAR     84  67  56 S22G29    29.79R
ALBUQUERQUE NM CLEAR     83  35  18 W13       30.02R
SALT LAKE CITY CLEAR     63  37  38 S6        29.99R
LOS ANGELES CA PTCLDY    73  64  73 S3        29.80R
BOISE ID       CLEAR     64  39  39 S3        29.96S
SEATTLE WA     MOCLDY    64  51  62 SW3       30.05R
$$

*** WEATHER ACROSS MANITOBA...SASKATCHEWAN AND ONTARIO ***
                ***ONTARIO***

CITY           SKY/WX    TMP DP  RH WIND       PRES   REMARKS
GERALDTON      CLOUDY    59  54  82 SE7       29.73F
THUNDER BAY    CLOUDY    59  57  94 E14       29.66F
SIOUX LOOKOUT  CLOUDY    63  59  88 S10       29.53S
TORONTO        PTCLDY    70  64  83 N6        29.95S
BIG TROUT LK   LGT RAIN  57  55  94 SE12      29.64F
PICKLE LAKE    NOT AVBL
DRYDEN         CLOUDY    63  63 100 SW9       29.53R FOG
KENORA         CLOUDY    63  61  94 NW7       29.54R
$$
                *** MANITOBA***

CITY           SKY/WX    TMP DP  RH WIND       PRES   REMARKS
BRANDON        PTCLDY    54  54 100 NW2       29.66F
DAUPHIN        CLEAR     55  54  94 SW6       29.63F
ISLAND LAKE    MOCLDY    55  55 100 CALM      29.56F
PILOT MOUND      N/A     54  52  94 NW5         N/A
THE PAS        PTCLDY    54  48  82 SW3       29.58S
THOMPSON       PTCLDY    46  46 100 CALM      29.55S
WINNIPEG       MOCLDY    59  59 100 W6        29.62R
LYNN LAKE      MOCLDY    54  48  82 MISG      29.55S
CHURCHILL      LGT RAIN  48  48 100 E17       29.56F FOG
GILLAM         CLOUDY    55  55 100 S7        29.55F
$$
                ***SASKATCHEWAN***

CITY           SKY/WX    TMP DP  RH WIND       PRES   REMARKS
ESTEVAN        PTCLDY    55  54  94 W6        29.74S
KINDERSLEY     CLEAR     54  41  62 W6        29.78S
LLOYDMINSTER   CLEAR     45  41  87 W8        29.74S
PRINCE ALBERT  NOT AVBL
REGINA         NOT AVBL
YORKTON        CLEAR     55  50  82 W8        29.68R
N. BATTLEFORD  PTCLDY    54  43  66 W5        29.74R
LA RONGE       PTCLDY    55  46  71 W8        29.62S
SASKATOON      PTCLDY    50  48  93 SW7       29.73S
SWIFT CURRENT  CLEAR     52  43  71 CALM      29.80R
$$
NOTE: THESE ARE AUTOMATED STATIONS WITH LIMITED QUALITY CONTROL
      "FAIR" INDICATES FEW OR NO CLOUDS BELOW 12,000 FEET WITH NO
      SIGNIFICANT WEATHER AND/OR OBSTRUCTIONS TO VISIBILITY.
      SKY/WX - SKY CONDITION AND SIGNIFICANT WEATHER.
      TMP - AIR TEMPERATURE.    DP   - DEWPOINT TEMPERATURE.
      RH  - RELATIVE HUMIDITY.  PRES - PRESSURE.
      HX  - HEAT INDEX.         WCI  - WIND CHILL INDEX.
$



USA.gov is the U.S. government's official web portal to all federal, state and local government web resources and services.